This is the latest recevied weather packets stored in our database for station/object KE6AFE. If no packets are shown the sender has not sent any weather packets the latest 10 day(s).
| Time | Temp. | Humidity | Pressure | Rain* | Wind** | Luminosity | Snow |
|---|---|---|---|---|---|---|---|
| 1777952950 | 15.56° C | 57% | 1015.4 hPa | 0 mm | - | - | - |
| 1777952340 | 16.11° C | 56% | 1015.2 hPa | 0 mm | - | - | - |
| 1777951730 | 16.11° C | 57% | 1015.2 hPa | 0 mm | - | - | - |
| 1777951120 | 16.11° C | 57% | 1015.3 hPa | 0 mm | - | - | - |
| 1777950510 | 16.11° C | 56% | 1015.4 hPa | 0 mm | - | - | - |
| 1777949900 | 16.67° C | 55% | 1015.4 hPa | 0 mm | - | - | - |
| 1777949290 | 16.67° C | 53% | 1015.4 hPa | 0 mm | - | - | - |
| 1777948680 | 16.67° C | 53% | 1015.4 hPa | 0 mm | - | - | - |
| 1777948070 | 17.22° C | 53% | 1015.3 hPa | 0 mm | - | - | - |
| 1777947460 | 17.22° C | 52% | 1015.4 hPa | 0 mm | - | - | - |
| 1777946850 | 17.78° C | 51% | 1015.3 hPa | 0 mm | - | - | - |
| 1777946240 | 17.78° C | 51% | 1015.4 hPa | 0 mm | - | - | - |
| 1777945630 | 17.78° C | 51% | 1015.4 hPa | 0 mm | - | - | - |
| 1777945020 | 18.33° C | 49% | 1015.6 hPa | 0 mm | - | - | - |
| 1777944410 | 18.33° C | 49% | 1015.7 hPa | 0 mm | - | - | - |
| 1777943800 | 18.33° C | 48% | 1015.7 hPa | 0 mm | - | - | - |
| 1777943190 | 18.89° C | 47% | 1015.9 hPa | 0 mm | - | - | - |
| 1777942580 | 18.89° C | 45% | 1016 hPa | 0 mm | - | - | - |
| 1777941970 | 19.44° C | 45% | 1016.1 hPa | 0 mm | - | - | - |
| 1777941360 | 20° C | 44% | 1016 hPa | 0 mm | - | - | - |
| 1777940750 | 20.56° C | 45% | 1016.1 hPa | 0 mm | - | - | - |
| 1777940140 | 20.56° C | 44% | 1016 hPa | 0 mm | - | - | - |
| 1777939530 | 20.56° C | 45% | 1015.9 hPa | 0 mm | - | - | - |
| 1777938920 | 21.11° C | 45% | 1015.8 hPa | 0 mm | - | - | - |
| 1777938310 | 21.11° C | 45% | 1015.9 hPa | 0 mm | - | - | - |
* Rain latest hour (hover to see other rain measurements)
** Current wind speed in m/s (hover to see current wind gust speed)